Home > Weather > Jamestown > Past weeks

Flag for Saint Helena Past Weather in Jamestown, Saint Helena — Yesterday and Last 2 Weeks

Now
62 °F

Cool.


Feels Like: 62 °F
Forecast: N/A
Wind: 18 mph from Southeast

Location: Saint Helena Island

Current Time: Aug 29, 2016 at 9:54:01 PM

Latest Report: Aug 29, 2016 at 9:00 PM


Visibility: N/A

Pressure: 30.11 "Hg

Humidity: 81%

Dew Point: 56 °F

Location of JamestownLocation

Past Weather in Jamestown — Graph

°F

Jamestown Temperature Yesterday

Maximum temperature yesterday: 69 °F (at 2:00 PM)
Minimum temperature yesterday: 61 °F (at 4:00 AM)
Average temperature yesterday: 63 °F

High & Low Weather Summary for the Past Weeks

 TemperatureHumidityPressure
High69 °F (Aug 28, 2:00 PM)98% (Aug 15, 2:00 AM)30.22 "Hg (Aug 15, 2:00 AM)
Low57 °F (Aug 22, 5:00 AM)60% (Aug 19, 10:00 AM)29.97 "Hg (Aug 26, 4:00 PM)
Average61 °F81%30.11 "Hg
* Reported Aug 14 6:00 PM — Aug 29 6:00 PM, Jamestown, Weather by CustomWeather, © 2016

Note: Actual official high and low records may vary slightly from our data, if they occured in-between our weather recording intervals... More about our weather records

Advertising

Jamestown Weather History for the Previous 24 Hours

Scroll right to see more
 ConditionsComfort  
Time TempWeatherWind HumidityBarometerVisibility
6:00 PM
Mon, Aug 29
62 °FCool.16 mph89%30.06 "HgN/A
4:00 PM64 °FMild.16 mph80%30.05 "HgN/A
3:00 PM66 °FMild.14 mph72%30.06 "HgN/A
2:00 PM67 °FMild.16 mph65%30.07 "HgN/A
1:00 PM65 °FMild.16 mph77%30.10 "HgN/A
12:00 PM65 °FMild.14 mph73%30.12 "HgN/A
11:00 AM64 °FMild.14 mph73%30.14 "HgN/A
10:00 AM64 °FMild.14 mph75%30.14 "HgN/A
9:00 AM62 °FCool.14 mph88%30.13 "HgN/A
8:00 AM62 °FCool.16 mph78%30.11 "HgN/A
7:00 AM62 °FCool.18 mph82%30.08 "HgN/A
6:00 AM61 °FCool.20 mph83%30.06 "HgN/A
5:00 AM61 °FCool.20 mph85%30.05 "HgN/A
3:00 AM61 °FCool.20 mph85%30.06 "HgN/A
2:00 AM61 °FCool.20 mph87%30.08 "HgN/A
1:00 AM61 °FCool.21 mph81%30.09 "HgN/A
11:00 PM
Sun, Aug 28
61 °FCool.22 mph78%30.12 "HgN/A
10:00 PM61 °FCool.21 mph90%30.12 "HgN/A
9:00 PM62 °FCool.17 mph85%30.12 "HgN/A
Weather by CustomWeather, © 2016

See weather overviewHow to use our weather pages